Time,TemperatureF,DewpointF,PressureIn,WindDirection,WindDirectionDegrees,WindSpeedMPH,WindSpeedGustMPH,Humidity,HourlyPrecipIn,Conditions,Clouds,dailyrainin,SoftwareType,DateUTC
2013-09-11 00:01:00,80.0,68.1,29.99,South,175,0.0,10.0,67,0.00,,,0.00,WUHU216DAVISVP2,2013-09-11 04:01:00,
2013-09-11 00:06:00,79.7,68.4,29.99,SSE,156,1.0,10.0,68,0.00,,,0.00,WUHU216DAVISVP2,2013-09-11 04:06:00,
2013-09-11 00:11:00,79.6,68.3,29.99,South,176,0.0,7.0,68,0.00,,,0.00,WUHU216DAVISVP2,2013-09-11 04:11:00,
2013-09-11 00:17:00,79.4,68.6,29.99,SSW,199,3.0,7.0,69,0.00,,,0.00,WUHU216DAVISVP2,2013-09-11 04:17:00,
2013-09-11 00:22:00,79.3,68.9,29.99,SSW,198,5.0,10.0,70,0.00,,,0.00,WUHU216DAVISVP2,2013-09-11 04:22:00,
2013-09-11 00:27:00,79.2,68.8,29.99,South,180,0.0,10.0,70,0.00,,,0.00,WUHU216DAVISVP2,2013-09-11 04:27:00,
2013-09-11 00:32:00,79.1,69.1,29.99,South,172,0.0,10.0,71,0.00,,,0.00,WUHU216DAVISVP2,2013-09-11 04:32:00,
2013-09-11 00:37:00,78.9,68.9,29.99,South,180,3.0,10.0,71,0.00,,,0.00,WUHU216DAVISVP2,2013-09-11 04:37:00,
2013-09-11 00:42:00,78.8,69.2,29.99,SSE,153,5.0,8.0,72,0.00,,,0.00,WUHU216DAVISVP2,2013-09-11 04:42:00,
2013-09-11 00:47:00,78.8,69.2,29.99,South,184,3.0,8.0,72,0.00,,,0.00,WUHU216DAVISVP2,2013-09-11 04:47:00,
2013-09-11 00:52:00,78.7,69.1,30.00,South,169,2.0,8.0,72,0.00,,,0.00,WUHU216DAVISVP2,2013-09-11 04:52:00,
2013-09-11 00:57:00,78.5,69.3,30.00,South,188,5.0,7.0,73,0.00,,,0.00,WUHU216DAVISVP2,2013-09-11 04:57:00,
2013-09-11 01:02:00,78.4,69.2,30.00,South,185,3.0,7.0,73,0.00,,,0.00,WUHU216DAVISVP2,2013-09-11 05:02:00,
2013-09-11 01:07:00,78.2,69.4,30.00,South,185,1.0,7.0,74,0.00,,,0.00,WUHU216DAVISVP2,2013-09-11 05:07:00,
2013-09-11 01:12:00,78.0,69.2,30.00,South,173,0.0,6.0,74,0.00,,,0.00,WUHU216DAVISVP2,2013-09-11 05:12:00,
2013-09-11 01:17:00,77.8,69.4,30.00,South,178,0.0,7.0,75,0.00,,,0.00,WUHU216DAVISVP2,2013-09-11 05:17:00,
2013-09-11 01:22:00,77.6,69.2,30.00,South,171,2.0,7.0,75,0.00,,,0.00,WUHU216DAVISVP2,2013-09-11 05:22:00,
2013-09-11 01:27:00,77.4,69.4,30.00,South,189,4.0,7.0,76,0.00,,,0.00,WUHU216DAVISVP2,2013-09-11 05:27:00,
2013-09-11 01:32:00,77.5,69.5,30.00,South,184,6.0,10.0,76,0.00,,,0.00,WUHU216DAVISVP2,2013-09-11 05:32:00,
2013-09-11 01:37:00,77.6,69.6,30.00,SSW,196,6.0,10.0,76,0.00,,,0.00,WUHU216DAVISVP2,2013-09-11 05:37:00,
2013-09-11 01:43:00,77.7,69.7,29.99,SSW,198,7.0,10.0,76,0.00,,,0.00,WUHU216DAVISVP2,2013-09-11 05:43:00,
2013-09-11 01:48:00,77.9,69.3,29.99,South,180,6.0,10.0,75,0.00,,,0.00,WUHU216DAVISVP2,2013-09-11 05:48:00,
2013-09-11 01:53:00,78.1,69.5,29.99,South,178,4.0,11.0,75,0.00,,,0.00,WUHU216DAVISVP2,2013-09-11 05:53:00,
2013-09-11 01:58:00,78.1,69.5,29.99,South,184,7.0,11.0,75,0.00,,,0.00,WUHU216DAVISVP2,2013-09-11 05:58:00,
2013-09-11 02:03:00,78.3,69.7,29.99,South,181,6.0,11.0,75,0.00,,,0.00,WUHU216DAVISVP2,2013-09-11 06:03:00,
2013-09-11 02:08:00,78.3,69.7,29.99,South,185,9.0,10.0,75,0.00,,,0.00,WUHU216DAVISVP2,2013-09-11 06:08:00,
2013-09-11 02:13:00,78.3,70.1,29.99,SSW,195,5.0,11.0,76,0.00,,,0.00,WUHU216DAVISVP2,2013-09-11 06:13:00,
2013-09-11 02:18:00,78.3,70.3,29.99,South,175,6.0,11.0,76,0.00,,,0.00,WUHU216DAVISVP2,2013-09-11 06:18:00,
2013-09-11 02:23:00,78.3,70.3,29.99,SSW,207,3.0,12.0,76,0.00,,,0.00,WUHU216DAVISVP2,2013-09-11 06:23:00,
2013-09-11 02:28:00,78.2,70.2,29.99,SSE,151,5.0,12.0,76,0.00,,,0.00,WUHU216DAVISVP2,2013-09-11 06:28:00,
2013-09-11 02:33:00,78.1,70.4,29.99,South,182,6.0,12.0,77,0.00,,,0.00,WUHU216DAVISVP2,2013-09-11 06:33:00,
2013-09-11 02:39:00,78.0,70.3,29.99,SSW,199,7.0,12.0,77,0.00,,,0.00,WUHU216DAVISVP2,2013-09-11 06:39:00,
2013-09-11 02:44:00,77.9,70.6,29.99,SSW,201,2.0,11.0,78,0.00,,,0.00,WUHU216DAVISVP2,2013-09-11 06:44:00,
2013-09-11 02:49:00,77.9,70.6,29.99,South,190,2.0,10.0,78,0.00,,,0.00,WUHU216DAVISVP2,2013-09-11 06:49:00,
2013-09-11 02:54:00,77.8,70.5,29.99,SSW,192,5.0,10.0,78,0.00,,,0.00,WUHU216DAVISVP2,2013-09-11 06:54:00,
2013-09-11 02:59:00,77.7,70.8,29.99,South,186,5.0,10.0,79,0.00,,,0.00,WUHU216DAVISVP2,2013-09-11 06:59:00,
2013-09-11 03:04:00,77.7,70.8,29.99,South,185,2.0,11.0,79,0.00,,,0.00,WUHU216DAVISVP2,2013-09-11 07:04:00,
2013-09-11 03:09:00,77.7,70.8,29.99,South,191,7.0,13.0,79,0.00,,,0.00,WUHU216DAVISVP2,2013-09-11 07:09:00,
2013-09-11 03:14:00,77.6,70.7,29.99,SSW,192,10.0,13.0,79,0.00,,,0.00,WUHU216DAVISVP2,2013-09-11 07:14:00,
2013-09-11 03:19:00,77.5,70.6,29.99,SW,219,9.0,14.0,79,0.00,,,0.00,WUHU216DAVISVP2,2013-09-11 07:19:00,
2013-09-11 03:24:00,77.4,70.5,29.99,SW,227,5.0,14.0,79,0.00,,,0.00,WUHU216DAVISVP2,2013-09-11 07:24:00,
2013-09-11 03:29:00,77.2,70.7,29.99,SSW,203,4.0,14.0,80,0.00,,,0.00,WUHU216DAVISVP2,2013-09-11 07:29:00,
2013-09-11 03:34:00,76.9,70.4,29.99,SSW,195,8.0,14.0,80,0.00,,,0.00,WUHU216DAVISVP2,2013-09-11 07:34:00,
2013-09-11 03:39:00,76.8,70.3,29.99,South,190,6.0,11.0,80,0.00,,,0.00,WUHU216DAVISVP2,2013-09-11 07:39:00,
2013-09-11 03:44:00,76.6,70.4,29.99,SSW,196,13.0,13.0,81,0.00,,,0.00,WUHU216DAVISVP2,2013-09-11 07:44:00,
2013-09-11 03:49:00,76.5,70.3,29.99,SSW,209,7.0,13.0,81,0.00,,,0.00,WUHU216DAVISVP2,2013-09-11 07:49:00,
2013-09-11 03:54:00,76.4,70.2,29.99,SSW,196,6.0,13.0,81,0.00,,,0.00,WUHU216DAVISVP2,2013-09-11 07:54:00,
2013-09-11 04:00:00,76.4,70.2,29.99,SSW,192,5.0,13.0,81,0.00,,,0.00,WUHU216DAVISVP2,2013-09-11 08:00:00,
2013-09-11 04:05:00,76.3,70.1,29.99,SSW,192,9.0,14.0,81,0.00,,,0.00,WUHU216DAVISVP2,2013-09-11 08:05:00,
2013-09-11 04:10:00,76.2,70.0,29.99,SSW,205,5.0,14.0,81,0.00,,,0.00,WUHU216DAVISVP2,2013-09-11 08:10:00,
2013-09-11 04:15:00,76.0,70.2,29.99,South,183,6.0,14.0,82,0.00,,,0.00,WUHU216DAVISVP2,2013-09-11 08:15:00,
2013-09-11 04:20:00,76.0,70.2,29.99,South,185,9.0,14.0,82,0.00,,,0.00,WUHU216DAVISVP2,2013-09-11 08:20:00,
2013-09-11 04:25:00,75.9,70.1,29.99,South,186,7.0,12.0,82,0.00,,,0.00,WUHU216DAVISVP2,2013-09-11 08:25:00,
2013-09-11 04:30:00,75.8,70.0,29.99,South,190,7.0,12.0,82,0.00,,,0.00,WUHU216DAVISVP2,2013-09-11 08:30:00,
2013-09-11 04:35:00,75.7,69.9,29.99,SSW,194,6.0,12.0,82,0.00,,,0.00,WUHU216DAVISVP2,2013-09-11 08:35:00,
2013-09-11 04:40:00,75.6,70.1,29.99,SSW,192,4.0,12.0,83,0.00,,,0.00,WUHU216DAVISVP2,2013-09-11 08:40:00,
2013-09-11 04:45:00,75.5,70.0,29.99,SSW,205,9.0,12.0,83,0.00,,,0.00,WUHU216DAVISVP2,2013-09-11 08:45:00,
2013-09-11 04:50:00,75.4,69.9,29.99,SSW,196,7.0,12.0,83,0.00,,,0.00,WUHU216DAVISVP2,2013-09-11 08:50:00,
2013-09-11 04:55:00,75.4,69.9,29.99,South,178,6.0,12.0,83,0.00,,,0.00,WUHU216DAVISVP2,2013-09-11 08:55:00,
2013-09-11 05:00:00,75.4,69.9,29.99,SSW,212,7.0,12.0,83,0.00,,,0.00,WUHU216DAVISVP2,2013-09-11 09:00:00,
2013-09-11 05:06:00,75.4,69.9,29.99,SSW,205,5.0,10.0,83,0.00,,,0.00,WUHU216DAVISVP2,2013-09-11 09:06:00,
2013-09-11 05:11:00,75.3,69.8,29.99,SSW,209,9.0,10.0,83,0.00,,,0.00,WUHU216DAVISVP2,2013-09-11 09:11:00,
2013-09-11 05:16:00,75.3,69.8,29.99,South,190,1.0,11.0,83,0.00,,,0.00,WUHU216DAVISVP2,2013-09-11 09:16:00,
2013-09-11 05:21:00,75.3,69.8,29.99,South,169,6.0,11.0,83,0.00,,,0.00,WUHU216DAVISVP2,2013-09-11 09:21:00,
2013-09-11 05:26:00,75.2,70.1,29.99,SSW,207,2.0,11.0,84,0.00,,,0.00,WUHU216DAVISVP2,2013-09-11 09:26:00,
2013-09-11 05:31:00,75.1,70.0,29.99,South,186,5.0,11.0,84,0.00,,,0.00,WUHU216DAVISVP2,2013-09-11 09:31:00,
2013-09-11 05:36:00,75.1,70.0,29.99,SSW,206,4.0,11.0,84,0.00,,,0.00,WUHU216DAVISVP2,2013-09-11 09:36:00,
2013-09-11 05:41:00,74.9,69.8,29.99,SSW,202,1.0,11.0,84,0.00,,,0.00,WUHU216DAVISVP2,2013-09-11 09:41:00,
2013-09-11 05:46:00,74.9,69.8,29.99,SSW,194,5.0,10.0,84,0.00,,,0.00,WUHU216DAVISVP2,2013-09-11 09:46:00,
2013-09-11 05:51:00,74.9,69.8,29.99,SSW,208,6.0,10.0,84,0.00,,,0.00,WUHU216DAVISVP2,2013-09-11 09:51:00,
2013-09-11 05:56:00,74.9,69.8,29.99,SSW,202,7.0,10.0,84,0.00,,,0.00,WUHU216DAVISVP2,2013-09-11 09:56:00,
2013-09-11 06:01:00,75.1,70.0,29.99,SSW,196,6.0,10.0,84,0.00,,,0.00,WUHU216DAVISVP2,2013-09-11 10:01:00,
2013-09-11 06:06:00,75.1,70.0,29.99,South,182,4.0,9.0,84,0.00,,,0.00,WUHU216DAVISVP2,2013-09-11 10:06:00,
2013-09-11 06:12:00,75.2,70.1,29.99,South,189,6.0,9.0,84,0.00,,,0.00,WUHU216DAVISVP2,2013-09-11 10:12:00,
2013-09-11 06:17:00,75.3,70.2,29.99,SSW,203,6.0,11.0,84,0.00,,,0.00,WUHU216DAVISVP2,2013-09-11 10:17:00,
2013-09-11 06:22:00,75.5,70.4,29.99,SSW,195,5.0,11.0,84,0.00,,,0.00,WUHU216DAVISVP2,2013-09-11 10:22:00,
2013-09-11 06:27:00,75.6,70.1,29.99,SSW,207,1.0,11.0,83,0.00,,,0.00,WUHU216DAVISVP2,2013-09-11 10:27:00,
2013-09-11 06:32:00,75.6,70.1,29.99,SSW,195,6.0,11.0,83,0.00,,,0.00,WUHU216DAVISVP2,2013-09-11 10:32:00,
2013-09-11 06:37:00,75.8,70.3,29.99,SSW,203,5.0,11.0,83,0.00,,,0.00,WUHU216DAVISVP2,2013-09-11 10:37:00,
2013-09-11 06:42:00,75.9,70.1,29.99,South,189,5.0,12.0,82,0.00,,,0.00,WUHU216DAVISVP2,2013-09-11 10:42:00,
2013-09-11 06:47:00,75.9,70.1,29.99,South,180,6.0,14.0,82,0.00,,,0.00,WUHU216DAVISVP2,2013-09-11 10:47:00,
2013-09-11 06:52:00,76.0,70.2,30.00,South,191,2.0,14.0,82,0.00,,,0.00,WUHU216DAVISVP2,2013-09-11 10:52:00,
2013-09-11 06:57:00,75.9,70.1,29.99,South,178,5.0,14.0,82,0.00,,,0.00,WUHU216DAVISVP2,2013-09-11 10:57:00,
2013-09-11 07:02:00,75.8,70.0,30.00,SSW,198,7.0,14.0,82,0.00,,,0.00,WUHU216DAVISVP2,2013-09-11 11:02:00,
2013-09-11 07:07:00,75.7,70.2,30.00,South,190,5.0,12.0,83,0.00,,,0.00,WUHU216DAVISVP2,2013-09-11 11:07:00,
2013-09-11 07:12:00,75.7,70.2,30.00,SSE,151,7.0,9.0,83,0.00,,,0.00,WUHU216DAVISVP2,2013-09-11 11:12:00,
2013-09-11 07:17:00,75.6,70.1,30.00,SSW,193,4.0,9.0,83,0.00,,,0.00,WUHU216DAVISVP2,2013-09-11 11:17:00,
2013-09-11 07:22:00,75.4,69.9,30.00,SSW,192,2.0,9.0,83,0.00,,,0.00,WUHU216DAVISVP2,2013-09-11 11:22:00,
2013-09-11 07:28:00,75.2,69.7,30.00,South,171,4.0,9.0,83,0.00,,,0.00,WUHU216DAVISVP2,2013-09-11 11:28:00,
2013-09-11 07:33:00,75.0,69.9,30.00,South,171,7.0,8.0,84,0.00,,,0.00,WUHU216DAVISVP2,2013-09-11 11:33:00,
2013-09-11 07:38:00,74.9,69.8,30.00,SSW,194,8.0,10.0,84,0.00,,,0.00,WUHU216DAVISVP2,2013-09-11 11:38:00,
2013-09-11 07:43:00,74.7,69.6,30.01,South,177,8.0,10.0,84,0.00,,,0.00,WUHU216DAVISVP2,2013-09-11 11:43:00,
2013-09-11 07:48:00,74.7,69.9,30.01,South,182,5.0,10.0,85,0.00,,,0.00,WUHU216DAVISVP2,2013-09-11 11:48:00,
2013-09-11 07:53:00,74.6,69.8,30.01,South,190,6.0,9.0,85,0.00,,,0.00,WUHU216DAVISVP2,2013-09-11 11:53:00,
2013-09-11 07:58:00,74.6,69.8,30.01,SSW,197,8.0,9.0,85,0.00,,,0.00,WUHU216DAVISVP2,2013-09-11 11:58:00,
2013-09-11 08:03:00,74.6,69.4,30.01,South,188,5.0,9.0,84,0.00,,,0.00,WUHU216DAVISVP2,2013-09-11 12:03:00,
2013-09-11 08:08:00,74.6,69.4,30.01,SW,215,1.0,9.0,84,0.00,,,0.00,WUHU216DAVISVP2,2013-09-11 12:08:00,
2013-09-11 08:13:00,74.5,69.7,30.01,South,181,7.0,9.0,85,0.00,,,0.00,WUHU216DAVISVP2,2013-09-11 12:13:00,
2013-09-11 08:18:00,74.7,69.9,30.01,South,172,5.0,9.0,85,0.00,,,0.00,WUHU216DAVISVP2,2013-09-11 12:18:00,
2013-09-11 08:23:00,75.0,69.8,30.02,SSE,162,4.0,10.0,84,0.00,,,0.00,WUHU216DAVISVP2,2013-09-11 12:23:00,
2013-09-11 08:28:00,75.4,70.2,30.02,South,179,5.0,10.0,84,0.00,,,0.00,WUHU216DAVISVP2,2013-09-11 12:28:00,
2013-09-11 08:33:00,75.6,70.1,30.02,South,183,6.0,11.0,83,0.00,,,0.00,WUHU216DAVISVP2,2013-09-11 12:33:00,
2013-09-11 08:38:00,75.8,70.3,30.01,South,175,7.0,11.0,83,0.00,,,0.00,WUHU216DAVISVP2,2013-09-11 12:38:00,
2013-09-11 08:43:00,76.1,70.2,30.01,South,190,6.0,11.0,82,0.00,,,0.00,WUHU216DAVISVP2,2013-09-11 12:43:00,
2013-09-11 08:48:00,76.4,70.5,30.01,South,171,9.0,14.0,82,0.00,,,0.00,WUHU216DAVISVP2,2013-09-11 12:48:00,
2013-09-11 08:53:00,76.6,70.3,30.02,South,171,9.0,14.0,81,0.00,,,0.00,WUHU216DAVISVP2,2013-09-11 12:53:00,
2013-09-11 08:59:00,76.8,70.5,30.02,SSW,193,4.0,14.0,81,0.00,,,0.00,WUHU216DAVISVP2,2013-09-11 12:59:00,
2013-09-11 09:04:00,77.2,70.5,30.02,SSW,194,6.0,14.0,80,0.00,,,0.00,WUHU216DAVISVP2,2013-09-11 13:04:00,
2013-09-11 09:09:00,77.5,70.8,30.02,SSE,163,6.0,14.0,80,0.00,,,0.00,WUHU216DAVISVP2,2013-09-11 13:09:00,
2013-09-11 09:14:00,77.8,70.8,30.02,SSW,212,9.0,13.0,79,0.00,,,0.00,WUHU216DAVISVP2,2013-09-11 13:14:00,
2013-09-11 09:19:00,78.1,71.1,30.02,SSW,193,6.0,13.0,79,0.00,,,0.00,WUHU216DAVISVP2,2013-09-11 13:19:00,
2013-09-11 09:24:00,78.5,71.1,30.02,SW,215,7.0,13.0,78,0.00,,,0.00,WUHU216DAVISVP2,2013-09-11 13:24:00,
2013-09-11 09:29:00,78.7,70.9,30.02,SSW,199,8.0,13.0,77,0.00,,,0.00,WUHU216DAVISVP2,2013-09-11 13:29:00,
2013-09-11 09:34:00,79.2,71.0,30.02,SSW,204,8.0,13.0,76,0.00,,,0.00,WUHU216DAVISVP2,2013-09-11 13:34:00,
2013-09-11 09:39:00,79.6,70.8,30.01,SSW,198,10.0,12.0,74,0.00,,,0.00,WUHU216DAVISVP2,2013-09-11 13:39:00,
2013-09-11 09:44:00,79.9,71.1,30.02,South,190,8.0,14.0,74,0.00,,,0.00,WUHU216DAVISVP2,2013-09-11 13:44:00,
2013-09-11 09:49:00,79.8,70.6,30.02,SW,229,9.0,14.0,73,0.00,,,0.00,WUHU216DAVISVP2,2013-09-11 13:49:00,
2013-09-11 09:55:00,79.6,70.4,30.02,South,191,9.0,14.0,73,0.00,,,0.00,WUHU216DAVISVP2,2013-09-11 13:55:00,
2013-09-11 10:00:00,79.4,70.2,30.01,SSW,212,10.0,14.0,73,0.00,,,0.00,WUHU216DAVISVP2,2013-09-11 14:00:00,
2013-09-11 10:05:00,79.4,70.2,30.01,South,187,5.0,14.0,73,0.00,,,0.00,WUHU216DAVISVP2,2013-09-11 14:05:00,
2013-09-11 10:10:00,79.8,70.6,30.01,SSW,207,6.0,14.0,73,0.00,,,0.00,WUHU216DAVISVP2,2013-09-11 14:10:00,
2013-09-11 10:15:00,79.9,70.3,30.01,SW,215,8.0,14.0,72,0.00,,,0.00,WUHU216DAVISVP2,2013-09-11 14:15:00,
2013-09-11 10:20:00,80.2,71.0,30.01,SSE,155,3.0,14.0,73,0.00,,,0.00,WUHU216DAVISVP2,2013-09-11 14:20:00,
2013-09-11 10:25:00,80.7,71.0,30.01,South,189,4.0,14.0,72,0.00,,,0.00,WUHU216DAVISVP2,2013-09-11 14:25:00,
2013-09-11 10:30:00,81.2,71.5,30.01,South,176,2.0,13.0,72,0.00,,,0.00,WUHU216DAVISVP2,2013-09-11 14:30:00,
2013-09-11 10:35:00,82.0,71.1,30.01,SSW,211,9.0,13.0,69,0.00,,,0.00,WUHU216DAVISVP2,2013-09-11 14:35:00,
2013-09-11 10:40:00,82.5,71.1,30.00,SSW,196,8.0,14.0,68,0.00,,,0.00,WUHU216DAVISVP2,2013-09-11 14:40:00,
2013-09-11 10:45:00,82.9,70.6,30.00,SSE,163,5.0,18.0,66,0.00,,,0.00,WUHU216DAVISVP2,2013-09-11 14:45:00,
2013-09-11 10:50:00,83.4,71.1,30.00,SSW,205,10.0,18.0,66,0.00,,,0.00,WUHU216DAVISVP2,2013-09-11 14:50:00,
2013-09-11 10:55:00,83.9,71.1,30.00,South,190,12.0,18.0,65,0.00,,,0.00,WUHU216DAVISVP2,2013-09-11 14:55:00,
2013-09-11 11:00:00,84.3,70.8,30.00,South,179,8.0,18.0,64,0.00,,,0.00,WUHU216DAVISVP2,2013-09-11 15:00:00,
2013-09-11 11:05:00,84.4,70.9,30.00,South,190,2.0,14.0,64,0.00,,,0.00,WUHU216DAVISVP2,2013-09-11 15:05:00,
2013-09-11 11:10:00,84.5,71.7,30.00,South,184,7.0,13.0,65,0.00,,,0.00,WUHU216DAVISVP2,2013-09-11 15:10:00,
2013-09-11 11:16:00,85.0,71.3,30.00,SSW,212,5.0,13.0,63,0.00,,,0.00,WUHU216DAVISVP2,2013-09-11 15:16:00,
2013-09-11 11:21:00,85.2,71.0,30.00,SW,220,5.0,14.0,62,0.00,,,0.00,WUHU216DAVISVP2,2013-09-11 15:21:00,
2013-09-11 11:26:00,85.5,71.3,30.00,SSW,193,13.0,14.0,62,0.00,,,0.00,WUHU216DAVISVP2,2013-09-11 15:26:00,
2013-09-11 11:31:00,85.6,71.4,29.99,South,170,6.0,14.0,62,0.00,,,0.00,WUHU216DAVISVP2,2013-09-11 15:31:00,
2013-09-11 11:36:00,86.4,71.6,29.99,SSW,202,7.0,14.0,61,0.00,,,0.00,WUHU216DAVISVP2,2013-09-11 15:36:00,
2013-09-11 11:41:00,86.8,70.5,29.99,South,188,10.0,15.0,58,0.00,,,0.00,WUHU216DAVISVP2,2013-09-11 15:41:00,
2013-09-11 11:46:00,87.1,70.5,29.99,SSW,202,7.0,15.0,58,0.00,,,0.00,WUHU216DAVISVP2,2013-09-11 15:46:00,
2013-09-11 11:51:00,87.5,70.4,29.99,SSW,198,9.0,18.0,57,0.00,,,0.00,WUHU216DAVISVP2,2013-09-11 15:51:00,
2013-09-11 11:56:00,87.6,71.3,29.98,SW,217,5.0,18.0,58,0.00,,,0.00,WUHU216DAVISVP2,2013-09-11 15:56:00,
2013-09-11 12:01:00,88.2,70.8,29.98,South,184,9.0,18.0,56,0.00,,,0.00,WUHU216DAVISVP2,2013-09-11 16:01:00,
2013-09-11 12:06:00,88.6,71.2,29.98,SSW,209,10.0,18.0,56,0.00,,,0.00,WUHU216DAVISVP2,2013-09-11 16:06:00,
2013-09-11 12:11:00,89.0,70.4,29.98,SSW,192,8.0,16.0,54,0.00,,,0.00,WUHU216DAVISVP2,2013-09-11 16:11:00,
2013-09-11 12:16:00,89.3,70.1,29.97,South,191,7.0,16.0,53,0.00,,,0.00,WUHU216DAVISVP2,2013-09-11 16:16:00,
2013-09-11 12:22:00,89.9,70.5,29.98,South,175,3.0,16.0,53,0.00,,,0.00,WUHU216DAVISVP2,2013-09-11 16:22:00,
2013-09-11 12:27:00,90.1,70.1,29.98,SW,217,9.0,16.0,52,0.00,,,0.00,WUHU216DAVISVP2,2013-09-11 16:27:00,
2013-09-11 12:32:00,90.3,70.5,29.97,South,184,8.0,16.0,52,0.00,,,0.00,WUHU216DAVISVP2,2013-09-11 16:32:00,
2013-09-11 12:37:00,90.6,69.6,29.97,SW,217,12.0,16.0,50,0.00,,,0.00,WUHU216DAVISVP2,2013-09-11 16:37:00,
2013-09-11 12:42:00,90.6,70.2,29.97,SW,223,9.0,19.0,51,0.00,,,0.00,WUHU216DAVISVP2,2013-09-11 16:42:00,
2013-09-11 12:47:00,90.8,69.2,29.97,South,182,11.0,21.0,49,0.00,,,0.00,WUHU216DAVISVP2,2013-09-11 16:47:00,
2013-09-11 12:52:00,90.8,69.2,29.97,SSW,205,8.0,21.0,49,0.00,,,0.00,WUHU216DAVISVP2,2013-09-11 16:52:00,
2013-09-11 12:57:00,91.0,70.4,29.97,SW,217,9.0,21.0,51,0.00,,,0.00,WUHU216DAVISVP2,2013-09-11 16:57:00,
2013-09-11 13:02:00,91.6,69.1,29.96,South,186,14.0,21.0,48,0.00,,,0.00,WUHU216DAVISVP2,2013-09-11 17:02:00,
2013-09-11 13:07:00,91.0,68.7,29.96,South,189,8.0,22.0,48,0.00,,,0.00,WUHU216DAVISVP2,2013-09-11 17:07:00,
2013-09-11 13:12:00,91.6,68.7,29.96,WSW,248,12.0,22.0,47,0.00,,,0.00,WUHU216DAVISVP2,2013-09-11 17:12:00,
2013-09-11 13:17:00,91.3,68.4,29.96,SSW,202,9.0,22.0,47,0.00,,,0.00,WUHU216DAVISVP2,2013-09-11 17:17:00,
2013-09-11 13:22:00,92.1,68.5,29.96,SW,217,11.0,22.0,46,0.00,,,0.00,WUHU216DAVISVP2,2013-09-11 17:22:00,
2013-09-11 13:27:00,92.1,67.8,29.95,SW,219,11.0,20.0,45,0.00,,,0.00,WUHU216DAVISVP2,2013-09-11 17:27:00,
2013-09-11 13:32:00,92.0,68.4,29.96,SSW,198,15.0,20.0,46,0.00,,,0.00,WUHU216DAVISVP2,2013-09-11 17:32:00,
2013-09-11 13:37:00,92.1,67.8,29.96,SSW,210,9.0,20.0,45,0.00,,,0.00,WUHU216DAVISVP2,2013-09-11 17:37:00,
2013-09-11 13:42:00,91.7,67.3,29.95,SW,217,10.0,20.0,45,0.00,,,0.00,WUHU216DAVISVP2,2013-09-11 17:42:00,
2013-09-11 13:47:00,92.4,68.0,29.95,SSE,159,12.0,20.0,45,0.00,,,0.00,WUHU216DAVISVP2,2013-09-11 17:47:00,
2013-09-11 13:53:00,92.3,67.3,29.95,SSW,206,11.0,19.0,44,0.00,,,0.00,WUHU216DAVISVP2,2013-09-11 17:53:00,
2013-09-11 13:58:00,92.0,67.0,29.95,SSW,195,12.0,20.0,44,0.00,,,0.00,WUHU216DAVISVP2,2013-09-11 17:58:00,
2013-09-11 14:03:00,93.0,67.9,29.94,SW,229,13.0,20.0,44,0.00,,,0.00,WUHU216DAVISVP2,2013-09-11 18:03:00,
2013-09-11 14:08:00,93.9,68.1,29.94,SSW,194,8.0,20.0,43,0.00,,,0.00,WUHU216DAVISVP2,2013-09-11 18:08:00,
2013-09-11 14:13:00,93.8,66.5,29.94,SSW,200,9.0,24.0,41,0.00,,,0.00,WUHU216DAVISVP2,2013-09-11 18:13:00,
2013-09-11 14:18:00,92.4,66.7,29.94,WSW,238,8.0,24.0,43,0.00,,,0.00,WUHU216DAVISVP2,2013-09-11 18:18:00,
2013-09-11 14:23:00,91.8,66.8,29.94,SSW,205,13.0,24.0,44,0.00,,,0.00,WUHU216DAVISVP2,2013-09-11 18:23:00,
2013-09-11 14:28:00,92.0,66.3,29.94,South,186,13.0,24.0,43,0.00,,,0.00,WUHU216DAVISVP2,2013-09-11 18:28:00,
2013-09-11 14:33:00,91.6,66.6,29.93,SSW,197,13.0,24.0,44,0.00,,,0.00,WUHU216DAVISVP2,2013-09-11 18:33:00,
2013-09-11 14:38:00,92.1,67.1,29.93,SSW,202,7.0,24.0,44,0.00,,,0.00,WUHU216DAVISVP2,2013-09-11 18:38:00,
2013-09-11 14:43:00,92.5,66.7,29.93,SSW,202,14.0,24.0,43,0.00,,,0.00,WUHU216DAVISVP2,2013-09-11 18:43:00,
2013-09-11 14:48:00,93.0,66.5,29.93,SW,235,13.0,24.0,42,0.00,,,0.00,WUHU216DAVISVP2,2013-09-11 18:48:00,
2013-09-11 14:54:00,92.6,66.2,29.93,SSW,205,9.0,21.0,42,0.00,,,0.00,WUHU216DAVISVP2,2013-09-11 18:54:00,
2013-09-11 14:59:00,91.6,66.7,29.93,SW,228,15.0,21.0,44,0.00,,,0.00,WUHU216DAVISVP2,2013-09-11 18:59:00,
2013-09-11 15:04:00,91.0,66.8,29.93,WSW,250,16.0,21.0,45,0.00,,,0.00,WUHU216DAVISVP2,2013-09-11 19:04:00,
2013-09-11 15:09:00,91.0,67.5,29.93,SSW,193,9.0,21.0,46,0.00,,,0.00,WUHU216DAVISVP2,2013-09-11 19:09:00,
2013-09-11 15:14:00,91.8,66.9,29.93,South,173,12.0,21.0,44,0.00,,,0.00,WUHU216DAVISVP2,2013-09-11 19:14:00,
2013-09-11 15:19:00,92.7,67.0,29.93,SW,220,14.0,21.0,43,0.00,,,0.00,WUHU216DAVISVP2,2013-09-11 19:19:00,
2013-09-11 15:24:00,93.0,65.1,29.92,SSW,196,14.0,24.0,40,0.00,,,0.00,WUHU216DAVISVP2,2013-09-11 19:24:00,
2013-09-11 15:29:00,93.5,67.0,29.92,South,182,6.0,24.0,42,0.00,,,0.00,WUHU216DAVISVP2,2013-09-11 19:29:00,
2013-09-11 15:34:00,93.5,66.3,29.92,South,169,11.0,24.0,41,0.00,,,0.00,WUHU216DAVISVP2,2013-09-11 19:34:00,
2013-09-11 15:39:00,93.3,66.1,29.92,SW,227,7.0,24.0,41,0.00,,,0.00,WUHU216DAVISVP2,2013-09-11 19:39:00,
2013-09-11 15:44:00,93.0,66.6,29.92,South,190,14.0,20.0,42,0.00,,,0.00,WUHU216DAVISVP2,2013-09-11 19:44:00,
2013-09-11 15:49:00,94.5,67.2,29.91,South,189,23.0,23.0,41,0.00,,,0.00,WUHU216DAVISVP2,2013-09-11 19:49:00,
2013-09-11 15:54:00,93.9,65.9,29.91,SSW,193,6.0,23.0,40,0.00,,,0.00,WUHU216DAVISVP2,2013-09-11 19:54:00,
2013-09-11 15:59:00,93.3,66.8,29.91,South,189,18.0,23.0,42,0.00,,,0.00,WUHU216DAVISVP2,2013-09-11 19:59:00,
2013-09-11 16:04:00,93.3,66.1,29.91,WSW,237,14.0,23.0,41,0.00,,,0.00,WUHU216DAVISVP2,2013-09-11 20:04:00,
2013-09-11 16:09:00,93.1,66.6,29.90,WSW,248,8.0,21.0,42,0.00,,,0.00,WUHU216DAVISVP2,2013-09-11 20:09:00,
2013-09-11 16:14:00,93.2,66.7,29.90,SSW,210,8.0,21.0,42,0.00,,,0.00,WUHU216DAVISVP2,2013-09-11 20:14:00,
2013-09-11 16:20:00,93.0,66.6,29.90,SSW,202,14.0,21.0,42,0.00,,,0.00,WUHU216DAVISVP2,2013-09-11 20:20:00,
2013-09-11 16:25:00,92.5,66.1,29.90,SSW,209,14.0,21.0,42,0.00,,,0.00,WUHU216DAVISVP2,2013-09-11 20:25:00,
2013-09-11 16:30:00,93.0,65.8,29.89,SSW,205,10.0,22.0,41,0.00,,,0.00,WUHU216DAVISVP2,2013-09-11 20:30:00,
2013-09-11 16:35:00,93.3,66.1,29.89,SSW,200,10.0,22.0,41,0.00,,,0.00,WUHU216DAVISVP2,2013-09-11 20:35:00,
2013-09-11 16:40:00,93.0,66.6,29.89,WSW,246,9.0,22.0,42,0.00,,,0.00,WUHU216DAVISVP2,2013-09-11 20:40:00,
2013-09-11 16:45:00,93.7,65.0,29.89,SSW,194,7.0,25.0,39,0.00,,,0.00,WUHU216DAVISVP2,2013-09-11 20:45:00,
2013-09-11 16:50:00,94.0,65.3,29.88,South,190,14.0,25.0,39,0.00,,,0.00,WUHU216DAVISVP2,2013-09-11 20:50:00,
2013-09-11 16:55:00,93.8,65.8,29.88,SSE,165,5.0,25.0,40,0.00,,,0.00,WUHU216DAVISVP2,2013-09-11 20:55:00,
2013-09-11 17:00:00,93.4,65.5,29.88,SSW,207,9.0,26.0,40,0.00,,,0.00,WUHU216DAVISVP2,2013-09-11 21:00:00,
2013-09-11 17:05:00,93.7,66.5,29.88,South,181,8.0,26.0,41,0.00,,,0.00,WUHU216DAVISVP2,2013-09-11 21:05:00,
2013-09-11 17:10:00,93.7,66.5,29.88,SW,223,11.0,26.0,41,0.00,,,0.00,WUHU216DAVISVP2,2013-09-11 21:10:00,
2013-09-11 17:15:00,92.9,65.8,29.88,SW,227,11.0,26.0,41,0.00,,,0.00,WUHU216DAVISVP2,2013-09-11 21:15:00,
2013-09-11 17:20:00,93.2,66.0,29.88,SW,234,9.0,22.0,41,0.00,,,0.00,WUHU216DAVISVP2,2013-09-11 21:20:00,
2013-09-11 17:25:00,92.7,65.6,29.88,SSW,202,9.0,22.0,41,0.00,,,0.00,WUHU216DAVISVP2,2013-09-11 21:25:00,
2013-09-11 17:30:00,92.6,66.2,29.88,SW,215,2.0,22.0,42,0.00,,,0.00,WUHU216DAVISVP2,2013-09-11 21:30:00,
2013-09-11 17:35:00,93.2,66.0,29.88,South,190,11.0,19.0,41,0.00,,,0.00,WUHU216DAVISVP2,2013-09-11 21:35:00,
2013-09-11 17:40:00,93.2,66.0,29.88,South,189,10.0,25.0,41,0.00,,,0.00,WUHU216DAVISVP2,2013-09-11 21:40:00,
2013-09-11 17:46:00,92.8,65.7,29.88,South,188,14.0,25.0,41,0.00,,,0.00,WUHU216DAVISVP2,2013-09-11 21:46:00,
2013-09-11 17:51:00,92.2,65.8,29.88,SSW,204,7.0,25.0,42,0.00,,,0.00,WUHU216DAVISVP2,2013-09-11 21:51:00,
2013-09-11 17:56:00,92.2,66.5,29.88,SSW,198,10.0,25.0,43,0.00,,,0.00,WUHU216DAVISVP2,2013-09-11 21:56:00,
2013-09-11 18:01:00,91.7,66.1,29.88,SSW,192,12.0,19.0,43,0.00,,,0.00,WUHU216DAVISVP2,2013-09-11 22:01:00,
2013-09-11 18:06:00,91.9,66.9,29.88,SW,229,16.0,18.0,44,0.00,,,0.00,WUHU216DAVISVP2,2013-09-11 22:06:00,
2013-09-11 18:11:00,92.3,66.6,29.88,South,181,9.0,19.0,43,0.00,,,0.00,WUHU216DAVISVP2,2013-09-11 22:11:00,
2013-09-11 18:16:00,92.1,66.4,29.89,South,191,8.0,19.0,43,0.00,,,0.00,WUHU216DAVISVP2,2013-09-11 22:16:00,
2013-09-11 18:21:00,91.8,66.9,29.89,SSW,212,11.0,20.0,44,0.00,,,0.00,WUHU216DAVISVP2,2013-09-11 22:21:00,
2013-09-11 18:26:00,91.6,66.0,29.89,SSW,198,12.0,20.0,43,0.00,,,0.00,WUHU216DAVISVP2,2013-09-11 22:26:00,
2013-09-11 18:31:00,91.1,65.5,29.89,SSW,205,10.0,20.0,43,0.00,,,0.00,WUHU216DAVISVP2,2013-09-11 22:31:00,
2013-09-11 18:36:00,90.7,65.9,29.88,SSW,196,7.0,20.0,44,0.00,,,0.00,WUHU216DAVISVP2,2013-09-11 22:36:00,
2013-09-11 18:41:00,90.3,66.2,29.89,SSW,196,6.0,19.0,45,0.00,,,0.00,WUHU216DAVISVP2,2013-09-11 22:41:00,
2013-09-11 18:46:00,90.1,66.0,29.89,SSW,211,6.0,16.0,45,0.00,,,0.00,WUHU216DAVISVP2,2013-09-11 22:46:00,
2013-09-11 18:51:00,89.9,65.8,29.88,SSW,200,7.0,15.0,45,0.00,,,0.00,WUHU216DAVISVP2,2013-09-11 22:51:00,
2013-09-11 18:56:00,89.8,65.7,29.89,WSW,251,10.0,15.0,45,0.00,,,0.00,WUHU216DAVISVP2,2013-09-11 22:56:00,
2013-09-11 19:02:00,86.2,67.8,29.90,WNW,293,15.0,20.0,54,0.00,,,0.00,WUHU216DAVISVP2,2013-09-11 23:02:00,
2013-09-11 19:07:00,83.6,68.0,29.91,NW,309,18.0,22.0,59,0.00,,,0.00,WUHU216DAVISVP2,2013-09-11 23:07:00,
2013-09-11 19:12:00,81.7,68.1,29.92,West,276,21.0,25.0,63,0.00,,,0.00,WUHU216DAVISVP2,2013-09-11 23:12:00,
2013-09-11 19:17:00,80.0,68.3,29.94,West,279,15.0,33.0,67,0.00,,,0.00,WUHU216DAVISVP2,2013-09-11 23:17:00,
2013-09-11 19:22:00,77.3,68.9,29.94,West,279,24.0,33.0,75,0.00,,,0.00,WUHU216DAVISVP2,2013-09-11 23:22:00,
2013-09-11 19:27:00,74.6,69.2,29.93,NW,306,11.0,33.0,83,0.02,,,0.02,WUHU216DAVISVP2,2013-09-11 23:27:00,
2013-09-11 19:32:00,73.8,69.0,29.92,WNW,296,8.0,33.0,85,0.02,,,0.02,WUHU216DAVISVP2,2013-09-11 23:32:00,
2013-09-11 19:37:00,73.6,69.5,29.92,WNW,294,5.0,30.0,87,0.02,,,0.02,WUHU216DAVISVP2,2013-09-11 23:37:00,
2013-09-11 19:42:00,73.2,69.4,29.93,WNW,285,12.0,18.0,88,0.06,,,0.06,WUHU216DAVISVP2,2013-09-11 23:42:00,
2013-09-11 19:47:00,72.7,68.6,29.91,WNW,293,11.0,19.0,87,0.08,,,0.08,WUHU216DAVISVP2,2013-09-11 23:47:00,
2013-09-11 19:52:00,74.7,68.2,29.92,West,273,8.0,22.0,80,0.09,,,0.09,WUHU216DAVISVP2,2013-09-11 23:52:00,
2013-09-11 19:58:00,75.3,69.2,29.93,WSW,244,9.0,22.0,81,0.09,,,0.09,WUHU216DAVISVP2,2013-09-11 23:58:00,
2013-09-11 20:03:00,74.8,69.3,29.93,SW,216,1.0,22.0,83,0.09,,,0.09,WUHU216DAVISVP2,2013-09-12 00:03:00,
2013-09-11 20:08:00,73.7,69.6,29.93,SE,140,3.0,22.0,87,0.09,,,0.09,WUHU216DAVISVP2,2013-09-12 00:08:00,
2013-09-11 20:13:00,73.1,69.3,29.93,SE,137,0.0,11.0,88,0.10,,,0.10,WUHU216DAVISVP2,2013-09-12 00:13:00,
2013-09-11 20:18:00,73.1,69.7,29.93,West,271,0.0,9.0,89,0.10,,,0.10,WUHU216DAVISVP2,2013-09-12 00:18:00,
2013-09-11 20:23:00,72.8,69.4,29.93,WNW,303,4.0,9.0,89,0.10,,,0.10,WUHU216DAVISVP2,2013-09-12 00:23:00,
2013-09-11 20:28:00,72.6,69.5,29.92,WNW,292,4.0,8.0,90,0.08,,,0.10,WUHU216DAVISVP2,2013-09-12 00:28:00,
2013-09-11 20:33:00,72.6,69.5,29.93,WNW,292,4.0,8.0,90,0.08,,,0.10,WUHU216DAVISVP2,2013-09-12 00:33:00,
2013-09-11 20:38:00,72.5,69.4,29.93,WNW,292,1.0,8.0,90,0.08,,,0.10,WUHU216DAVISVP2,2013-09-12 00:38:00,
2013-09-11 20:43:00,72.3,69.2,29.92,WNW,292,0.0,8.0,90,0.02,,,0.10,WUHU216DAVISVP2,2013-09-12 00:43:00,
2013-09-11 20:48:00,72.1,69.3,29.92,WNW,292,0.0,6.0,91,0.01,,,0.10,WUHU216DAVISVP2,2013-09-12 00:48:00,
2013-09-11 20:53:00,72.0,69.2,29.92,WNW,292,0.0,6.0,91,0.01,,,0.10,WUHU216DAVISVP2,2013-09-12 00:53:00,
2013-09-11 20:58:00,71.9,69.1,29.92,WNW,292,0.0,5.0,91,0.01,,,0.10,WUHU216DAVISVP2,2013-09-12 00:58:00,
2013-09-11 21:03:00,71.8,69.0,29.92,WNW,293,0.0,5.0,91,0.01,,,0.10,WUHU216DAVISVP2,2013-09-12 01:03:00,
2013-09-11 21:08:00,71.8,69.0,29.92,WNW,293,0.0,5.0,91,0.00,,,0.10,WUHU216DAVISVP2,2013-09-12 01:08:00,
2013-09-11 21:14:00,71.9,69.4,29.92,WNW,293,2.0,5.0,92,0.00,,,0.10,WUHU216DAVISVP2,2013-09-12 01:14:00,
2013-09-11 21:19:00,71.8,69.3,29.93,WNW,293,3.0,5.0,92,0.00,,,0.10,WUHU216DAVISVP2,2013-09-12 01:19:00,
2013-09-11 21:24:00,71.6,69.1,29.93,WNW,293,1.0,4.0,92,0.00,,,0.10,WUHU216DAVISVP2,2013-09-12 01:24:00,
2013-09-11 21:29:00,71.5,69.3,29.93,WNW,293,0.0,4.0,93,0.00,,,0.10,WUHU216DAVISVP2,2013-09-12 01:29:00,
2013-09-11 21:34:00,71.4,69.6,29.93,WNW,293,5.0,6.0,94,0.00,,,0.10,WUHU216DAVISVP2,2013-09-12 01:34:00,
2013-09-11 21:39:00,71.5,69.7,29.93,WNW,293,0.0,6.0,94,0.00,,,0.10,WUHU216DAVISVP2,2013-09-12 01:39:00,
2013-09-11 21:44:00,71.6,69.8,29.93,WNW,293,0.0,6.0,94,0.00,,,0.10,WUHU216DAVISVP2,2013-09-12 01:44:00,
2013-09-11 21:49:00,71.5,69.7,29.93,WNW,293,0.0,6.0,94,0.00,,,0.10,WUHU216DAVISVP2,2013-09-12 01:49:00,
2013-09-11 21:54:00,71.4,69.6,29.93,WNW,293,0.0,5.0,94,0.00,,,0.10,WUHU216DAVISVP2,2013-09-12 01:54:00,
2013-09-11 21:59:00,71.2,69.4,29.93,WNW,293,0.0,4.0,94,0.00,,,0.10,WUHU216DAVISVP2,2013-09-12 01:59:00,
2013-09-11 22:04:00,71.0,69.2,29.93,WNW,293,0.0,1.0,94,0.00,,,0.10,WUHU216DAVISVP2,2013-09-12 02:04:00,
2013-09-11 22:09:00,70.8,69.3,29.93,WNW,293,0.0,1.0,95,0.00,,,0.10,WUHU216DAVISVP2,2013-09-12 02:09:00,
2013-09-11 22:14:00,70.8,69.3,29.93,WNW,293,1.0,2.0,95,0.00,,,0.10,WUHU216DAVISVP2,2013-09-12 02:14:00,
2013-09-11 22:19:00,70.9,69.4,29.93,WNW,293,0.0,2.0,95,0.00,,,0.10,WUHU216DAVISVP2,2013-09-12 02:19:00,
2013-09-11 22:24:00,70.9,69.4,29.93,WNW,293,0.0,2.0,95,0.00,,,0.10,WUHU216DAVISVP2,2013-09-12 02:24:00,
2013-09-11 22:29:00,70.8,69.3,29.93,WNW,293,0.0,2.0,95,0.00,,,0.10,WUHU216DAVISVP2,2013-09-12 02:29:00,
2013-09-11 22:35:00,70.8,69.3,29.93,WNW,293,0.0,2.0,95,0.00,,,0.10,WUHU216DAVISVP2,2013-09-12 02:35:00,
2013-09-11 22:40:00,70.7,69.2,29.93,WNW,293,0.0,2.0,95,0.00,,,0.10,WUHU216DAVISVP2,2013-09-12 02:40:00,
2013-09-11 22:45:00,70.6,69.1,29.93,WNW,293,0.0,1.0,95,0.00,,,0.10,WUHU216DAVISVP2,2013-09-12 02:45:00,
2013-09-11 22:50:00,70.5,69.0,29.93,WNW,293,0.0,0.0,95,0.00,,,0.10,WUHU216DAVISVP2,2013-09-12 02:50:00,
2013-09-11 22:55:00,70.5,69.3,29.93,WNW,293,0.0,1.0,96,0.00,,,0.10,WUHU216DAVISVP2,2013-09-12 02:55:00,
2013-09-11 23:00:00,70.4,69.2,29.93,WNW,293,0.0,1.0,96,0.00,,,0.10,WUHU216DAVISVP2,2013-09-12 03:00:00,
2013-09-11 23:05:00,70.3,69.1,29.93,WNW,293,0.0,1.0,96,0.00,,,0.10,WUHU216DAVISVP2,2013-09-12 03:05:00,
2013-09-11 23:10:00,70.3,69.1,29.93,WNW,293,0.0,1.0,96,0.00,,,0.10,WUHU216DAVISVP2,2013-09-12 03:10:00,
2013-09-11 23:15:00,70.3,69.1,29.93,WNW,293,2.0,2.0,96,0.00,,,0.10,WUHU216DAVISVP2,2013-09-12 03:15:00,
2013-09-11 23:20:00,70.3,69.4,29.93,WNW,293,0.0,2.0,97,0.00,,,0.10,WUHU216DAVISVP2,2013-09-12 03:20:00,
2013-09-11 23:25:00,70.2,69.0,29.93,WNW,293,0.0,2.0,96,0.00,,,0.10,WUHU216DAVISVP2,2013-09-12 03:25:00,
2013-09-11 23:30:00,70.0,68.8,29.93,WNW,293,1.0,2.0,96,0.00,,,0.10,WUHU216DAVISVP2,2013-09-12 03:30:00,
2013-09-11 23:35:00,70.0,69.1,29.93,WNW,293,0.0,2.0,97,0.00,,,0.10,WUHU216DAVISVP2,2013-09-12 03:35:00,
2013-09-11 23:40:00,70.0,69.1,29.93,WNW,293,0.0,2.0,97,0.00,,,0.10,WUHU216DAVISVP2,2013-09-12 03:40:00,
2013-09-11 23:45:00,70.0,69.1,29.93,WNW,293,0.0,2.0,97,0.00,,,0.10,WUHU216DAVISVP2,2013-09-12 03:45:00,
2013-09-11 23:50:00,69.9,69.0,29.93,WNW,293,0.0,1.0,97,0.00,,,0.10,WUHU216DAVISVP2,2013-09-12 03:50:00,
2013-09-11 23:55:00,69.9,69.0,29.93,WNW,293,0.0,3.0,97,0.00,,,0.10,WUHU216DAVISVP2,2013-09-12 03:55:00,